User: anonymous   Login
Location: Unspecified
(0.0000°N, 0.0000°E)
Time: 11:14:10
(UTC+00:00)
Language:

SPOT 5 - Orbit

View from above orbital plane
View from above orbital plane
View from above satellite
View from above satellite

Ground track
Ground track

The orbit data is extracted from the following two-line orbital elements,

1 27421U 02021A   18020.16236886  .00000003  00000-0  12271-4 0  9992
2 27421  98.3799  88.3672 0135968  24.5849 336.1755 14.51910704817155
Epoch (UTC): 20 January 2018 03:53:48
Eccentricity: 0.0135968
inclination: 98.3799°
perigee height: 623 km
apogee height: 816 km
right ascension of ascending node: 88.3672°
argument of perigee: 24.5849°
revolutions per day: 14.51910704
mean anomaly at epoch: 336.1755°
orbit number at epoch: 81715

The dashed part of the orbit path shows where the satellite is in the earth's shadow,  

DLR